GW4457 Weather Reports


Display with metric or nautical units.
time (UTC)temp
F
wind
direction
speed
MPH
gust
MPH
rain 1hr
in
rain 24hr
in
rain mn
in
humidity
%
barometer
mb
20260831110037 79 114 18.0 24.0 0.00 0.01 0.01 90 1019.0
20260831105537 79 100 17.0 24.0 0.00 0.01 0.01 90 1019.0
20260831105032 79 90 15.0 24.0 0.00 0.01 0.01 91 1019.0
20260831104528 79 110 18.0 26.0 0.00 0.01 0.01 91 1018.9
20260831104024 79 85 16.0 23.0 0.00 0.01 0.01 91 1018.7
20260831103519 79 87 18.0 25.0 0.00 0.01 0.01 92 1018.7
20260831103015 79 98 17.0 24.0 0.00 0.01 0.01 92 1018.8
20260831102514 79 137 18.0 24.0 0.00 0.01 0.01 92 1018.6
20260831102009 79 188 15.0 27.0 0.00 0.01 0.01 92 1018.6
20260831101504 78 113 12.0 24.0 0.00 0.01 0.01 92 1018.7
20260831101000 79 88 15.0 19.0 0.00 0.01 0.01 92 1018.6
20260831100456 79 148 19.0 23.0 0.00 0.01 0.01 92 1018.4
20260831095951 79 105 14.0 23.0 0.00 0.01 0.01 92 1018.3
20260831095451 79 151 11.0 18.0 0.00 0.01 0.01 91 1018.4
20260831094945 79 155 8.0 24.0 0.05 0.01 0.01 91 1018.4
20260831094442 79 80 15.0 25.0 0.05 0.01 0.01 90 1018.3
20260831093937 80 51 10.0 14.0 0.00 0.00 0.00 89 1018.1
20260831093432 80 63 17.0 21.0 0.00 0.00 0.00 89 1018.1
20260831092929 80 97 9.0 19.0 0.00 0.00 0.00 89 1018.1
20260831092424 80 109 16.0 24.0 0.00 0.00 0.00 89 1018.2
20260831091919 80 112 16.0 21.0 0.00 0.00 0.00 89 1018.1
20260831091414 80 106 14.0 16.0 0.00 0.00 0.00 89 1018.2
20260831090910 80 124 14.0 21.0 0.00 0.00 0.00 89 1018.4
20260831090407 80 125 13.0 21.0 0.00 0.00 0.00 90 1018.1
20260831085903 80 80 14.0 25.0 0.00 0.00 0.00 90 1018.2
20260831085402 80 50 17.0 23.0 0.00 0.00 0.00 90 1018.1
20260831084901 80 114 18.0 24.0 0.00 0.00 0.00 90 1017.8
20260831084358 80 95 16.0 22.0 0.00 0.00 0.00 90 1018.2
20260831083854 80 84 17.0 25.0 0.00 0.00 0.00 90 1017.8
20260831083349 80 89 14.0 25.0 0.00 0.00 0.00 90 1017.8
20260831082848 80 82 13.0 22.0 0.00 0.00 0.00 90 1017.9
20260831082343 80 93 19.0 26.0 0.00 0.00 0.00 90 1017.9
20260831081839 79 83 14.0 21.0 0.00 0.00 0.00 90 1017.8
20260831081334 79 108 14.0 22.0 0.00 0.00 0.00 90 1017.9
20260831080830 79 78 17.0 24.0 0.00 0.00 0.00 91 1017.7
20260831080325 79 123 15.0 19.0 0.00 0.00 0.00 91 1017.8
20260831075820 79 98 14.0 18.0 0.00 0.00 0.00 91 1017.9
20260831075315 79 175 12.0 17.0 0.00 0.00 0.00 91 1017.9
20260831074815 80 92 14.0 25.0 0.00 0.00 0.00 91 1017.9
20260831074315 80 110 12.0 22.0 0.00 0.00 0.00 91 1017.6
20260831073811 79 80 17.0 23.0 0.00 0.00 0.00 91 1017.9
20260831073309 79 101 14.0 23.0 0.00 0.00 0.00 92 1017.8
20260831072804 79 91 15.0 21.0 0.00 0.00 0.00 92 1017.9
20260831072300 79 93 14.0 23.0 0.00 0.00 0.00 92 1017.8
20260831071755 79 149 11.0 21.0 0.00 0.00 0.00 92 1018.1
20260831071245 79 94 15.0 21.0 0.00 0.00 0.00 92 1018.1
20260831070744 79 86 14.0 21.0 0.00 0.00 0.00 92 1018.1
20260831070243 79 212 9.0 18.0 0.00 0.00 0.00 92 1017.9
20260831065742 79 52 15.0 18.0 0.00 0.00 0.00 92 1018.2
20260831065241 79 106 15.0 24.0 0.00 0.00 0.00 92 1018.2
20260831064736 79 117 9.0 21.0 0.00 0.00 0.00 92 1018.1
20260831064231 79 77 14.0 16.0 0.00 0.00 0.00 91 1018.2
20260831063727 79 165 12.0 17.0 0.00 0.00 0.00 91 1017.9
20260831063222 79 155 10.0 17.0 0.00 0.00 0.00 91 1018.1
20260831062721 79 100 13.0 23.0 0.00 0.00 0.00 90 1017.9
20260831062217 79 110 13.0 21.0 0.00 0.00 0.00 90 1018.2
20260831061715 79 151 15.0 19.0 0.00 0.00 0.00 90 1018.4
20260831061211 79 106 15.0 18.0 0.00 0.00 0.00 90 1018.2
20260831060707 79 107 11.0 23.0 0.00 0.00 0.00 90 1018.5
20260831060207 79 96 16.0 21.0 0.00 0.00 0.00 90 1018.5
20260831055706 79 78 14.0 18.0 0.00 0.00 0.00 90 1018.3
20260831055201 79 90 15.0 24.0 0.00 0.00 0.00 89 1018.5
20260831054655 79 80 14.0 31.0 0.00 0.00 0.00 89 1018.5
20260831054150 79 66 18.0 21.0 0.00 0.00 0.00 89 1018.5
20260831053649 79 86 19.0 23.0 0.00 0.00 0.00 89 1018.6
20260831053148 79 177 14.0 27.0 0.00 0.00 0.00 89 1018.6
20260831052648 79 111 14.0 26.0 0.00 0.00 0.00 89 1018.5
20260831052147 79 91 20.0 23.0 0.00 0.00 0.00 89 1018.6
20260831051645 79 118 9.0 21.0 0.00 0.00 0.00 88 1018.5
20260831051144 79 109 18.0 21.0 0.00 0.00 0.00 88 1018.5
20260831050639 79 75 17.0 23.0 0.00 0.00 0.00 88 1018.8
20260831050138 79 81 20.0 25.0 0.00 0.00 0.00 88 1018.8
20260831045638 79 134 16.0 23.0 0.00 0.00 0.00 87 1018.9
20260831045133 79 90 16.0 21.0 0.00 0.00 0.00 87 1019.0
20260831044628 79 106 14.0 19.0 0.00 0.00 0.00 87 1019.2
20260831044123 79 74 15.0 21.0 0.00 0.00 0.00 87 1019.1
20260831043619 79 91 14.0 18.0 0.00 0.00 0.00 87 1019.2
20260831043114 79 95 14.0 26.0 0.00 0.00 0.00 87 1019.4
20260831042614 79 95 19.0 26.0 0.00 0.00 0.00 87 1019.4
20260831042109 79 93 14.0 22.0 0.00 0.00 0.00 87 1019.4
20260831041604 79 87 17.0 22.0 0.00 0.00 0.00 87 1019.4
20260831041103 79 97 15.0 23.0 0.00 0.00 0.00 87 1019.4
20260831040558 79 98 12.0 22.0 0.00 0.00 0.00 87 1019.5
20260831040057 79 131 17.0 22.0 0.00 0.00 0.00 86 1019.7
20260831035555 79 114 13.0 22.0 0.00 0.00 0.00 86 1019.8
20260831035051 79 104 17.0 19.0 0.00 0.00 0.00 86 1019.6
20260831034550 79 98 16.0 24.0 0.00 0.00 0.00 85 1019.9
20260831034046 79 86 10.0 17.0 0.00 0.00 0.00 85 1019.9
20260831033541 79 133 14.0 18.0 0.00 0.00 0.00 85 1019.7
20260831033036 79 106 13.0 21.0 0.00 0.00 0.00 85 1019.7
20260831032535 79 88 17.0 19.0 0.00 0.00 0.00 85 1019.9
20260831032031 79 107 13.0 19.0 0.00 0.00 0.00 85 1020.1
20260831031531 79 79 17.0 19.0 0.00 0.00 0.00 85 1019.7
20260831031030 79 101 15.0 18.0 0.00 0.00 0.00 85 1020.0
20260831030530 79 95 15.0 18.0 0.00 0.00 0.00 85 1019.8
20260831030029 79 339 9.0 23.0 0.00 0.00 0.00 85 1019.8
20260831025527 79 108 12.0 16.0 0.00 0.00 0.00 85 1019.8
20260831025022 79 104 14.0 16.0 0.00 0.00 0.00 85 1019.8
20260831024518 79 95 12.0 17.0 0.00 0.00 0.00 86 1019.6
20260831024018 79 196 7.0 15.0 0.00 0.00 0.00 86 1019.6
20260831023515 79 101 13.0 17.0 0.00 0.00 0.00 86 1019.7
20260831023010 79 153 13.0 18.0 0.00 0.00 0.00 87 1019.6
20260831022509 79 95 14.0 18.0 0.00 0.00 0.00 87 1019.7
20260831022005 79 130 13.0 17.0 0.00 0.00 0.00 88 1019.7
20260831021504 79 82 15.0 18.0 0.00 0.00 0.00 88 1019.8
20260831021000 79 137 11.0 23.0 0.00 0.00 0.00 88 1019.9
20260831020500 79 105 12.0 17.0 0.00 0.00 0.00 88 1019.9
20260831015954 79 55 9.0 16.0 0.00 0.00 0.00 88 1019.7
20260831015451 79 112 10.0 18.0 0.00 0.00 0.00 88 1019.8
20260831014946 79 85 13.0 17.0 0.00 0.00 0.00 88 1019.9
20260831014440 79 119 13.0 18.0 0.00 0.00 0.00 88 1019.9
20260831013936 79 190 9.0 15.0 0.00 0.00 0.00 88 1019.7
20260831013432 79 97 13.0 16.0 0.00 0.00 0.00 88 1019.7
20260831012931 79 101 13.0 16.0 0.00 0.00 0.00 88 1019.4
20260831012427 79 85 14.0 21.0 0.00 0.00 0.00 89 1019.5
20260831011921 79 90 11.0 19.0 0.00 0.00 0.00 89 1019.2
20260831011416 79 93 12.0 14.0 0.00 0.00 0.00 89 1018.9
20260831010912 79 183 11.0 17.0 0.00 0.00 0.00 89 1018.5
20260831010411 79 85 13.0 15.0 0.00 0.00 0.00 89 1018.5
20260831005907 79 137 8.0 15.0 0.00 0.00 0.00 89 1018.5
20260831005403 79 79 12.0 17.0 0.00 0.00 0.00 89 1018.4
20260831004857 79 116 12.0 17.0 0.00 0.00 0.00 89 1018.4
20260831004353 79 104 13.0 16.0 0.00 0.00 0.00 89 1018.4
20260831003848 79 66 10.0 15.0 0.00 0.00 0.00 89 1018.3
20260831003345 79 92 14.0 17.0 0.00 0.00 0.00 89 1018.4
20260831002844 79 62 11.0 16.0 0.00 0.00 0.00 88 1018.2
20260831002343 79 102 12.0 16.0 0.00 0.00 0.00 88 1018.4
20260831001839 79 88 8.0 14.0 0.00 0.00 0.00 88 1018.2
20260831001339 79 54 12.0 17.0 0.00 0.00 0.00 87 1018.3
20260831000837 79 108 10.0 13.0 0.00 0.00 0.00 87 1018.5
20260831000333 80 109 7.0 15.0 0.00 0.00 0.00 86 1018.3
20260830235830 80 99 6.0 14.0 0.00 0.00 0.00 85 1018.4
20260830235325 80 59 5.0 14.0 0.00 0.00 0.00 85 1018.2
20260830234820 80 84 9.0 10.0 0.00 0.00 0.00 84 1018.4
20260830234316 80 96 7.0 14.0 0.00 0.00 0.00 83 1018.2
20260830233812 80 88 7.0 9.0 0.00 0.00 0.00 82 1018.5
20260830233307 80 91 8.0 14.0 0.00 0.00 0.00 80 1018.4
20260830232802 80 52 6.0 13.0 0.00 0.00 0.00 80 1018.2
20260830232258 80 167 9.0 11.0 0.00 0.00 0.00 79 1018.3
20260830231754 80 89 13.0 16.0 0.00 0.00 0.00 81 1018.3
20260830231248 80 84 10.0 13.0 0.00 0.00 0.00 82 1018.3
20260830230743 81 76 9.0 15.0 0.00 0.00 0.00 83 1018.2
20260830230238 81 76 7.0 9.0 0.00 0.00 0.00 84 1017.9
20260830225737 81 64 8.0 11.0 0.00 0.00 0.00 84 1017.8
20260830225233 81 105 9.0 11.0 0.00 0.00 0.00 83 1017.8
20260830224732 81 72 5.0 11.0 0.00 0.00 0.00 82 1017.9
20260830224227 81 38 9.0 11.0 0.00 0.00 0.00 82 1017.8
20260830223724 81 27 9.0 11.0 0.00 0.00 0.00 82 1017.6
20260830223219 81 325 7.0 10.0 0.00 0.00 0.00 81 1017.6
20260830222714 81 349 9.0 10.0 0.00 0.00 0.00 81 1017.6
20260830222209 81 6 2.0 7.0 0.00 0.00 0.00 81 1017.3
20260830221705 81 341 10.0 14.0 0.00 0.00 0.00 81 1017.2
20260830221201 81 338 2.0 15.0 0.00 0.00 0.00 81 1017.2
20260830220656 81 332 4.0 7.0 0.00 0.00 0.00 81 1017.1
20260830220155 81 349 7.0 10.0 0.00 0.00 0.00 82 1017.0
20260830215654 81 132 4.0 7.0 0.00 0.00 0.00 82 1017.0
20260830215148 81 29 4.0 10.0 0.00 0.00 0.00 82 1017.1
20260830214644 81 221 3.0 6.0 0.00 0.00 0.00 82 1017.0
20260830214138 81 19 4.0 7.0 0.00 0.00 0.00 83 1017.1
20260830213638 80 157 6.0 11.0 0.00 0.00 0.00 84 1016.9
20260830213133 80 277 1.0 7.0 0.00 0.00 0.00 85 1016.9
20260830212629 80 354 6.0 10.0 0.00 0.00 0.00 85 1017.0
20260830212124 80 38 7.0 11.0 0.00 0.00 0.00 87 1016.8
20260830211619 79 29 11.0 16.0 0.00 0.00 0.00 87 1016.8
20260830211118 79 339 8.0 15.0 0.00 0.00 0.00 88 1016.6
20260830210615 79 307 3.0 15.0 0.00 0.00 0.00 89 1016.7
20260830210114 79 299 10.0 15.0 0.00 0.00 0.00 89 1016.4
20260830205611 79 19 9.0 17.0 0.00 0.00 0.00 89 1016.2
20260830205107 79 356 4.0 11.0 0.00 0.00 0.00 89 1016.2
20260830204606 79 334 2.0 11.0 0.00 0.00 0.00 89 1016.1
20260830204104 79 339 12.0 14.0 0.00 0.00 0.00 89 1015.9
20260830203601 79 336 9.0 11.0 0.00 0.00 0.00 89 1015.8
20260830203056 79 357 6.0 10.0 0.00 0.00 0.00 89 1016.0
20260830202556 79 323 7.0 11.0 0.00 0.00 0.00 89 1015.7
20260830202052 79 320 6.0 13.0 0.00 0.00 0.00 89 1015.7
20260830201551 79 342 11.0 13.0 0.00 0.00 0.00 89 1015.6
20260830201046 79 315 14.0 17.0 0.00 0.00 0.00 88 1015.5
20260830200541 79 340 13.0 18.0 0.00 0.00 0.00 88 1015.4
20260830200040 79 332 13.0 19.0 0.00 0.00 0.00 88 1015.5
20260830195536 79 335 11.0 16.0 0.00 0.00 0.00 88 1015.7
20260830195034 79 306 9.0 14.0 0.00 0.00 0.00 87 1015.5
20260830194533 79 287 12.0 18.0 0.00 0.00 0.00 87 1015.4
20260830194033 79 306 9.0 15.0 0.00 0.00 0.00 87 1015.1
20260830193532 79 315 8.0 13.0 0.00 0.00 0.00 87 1016.0
20260830193028 79 338 7.0 10.0 0.00 0.00 0.00 87 1016.4
20260830192523 79 324 11.0 13.0 0.00 0.00 0.00 88 1016.3
20260830192018 79 287 11.0 11.0 0.00 0.00 0.00 87 1016.9
20260830191513 78 24 4.0 6.0 0.00 0.00 0.00 89 1017.8
20260830191008 78 263 1.0 2.0 0.00 0.00 0.00 89 1018.1
20260830190503 79 176 4.0 7.0 0.00 0.00 0.00 89 1018.6
20260830190002 79 174 9.0 10.0 0.00 0.00 0.00 89 1018.9
20260830185457 79 172 9.0 11.0 0.00 0.00 0.00 88 1019.2
20260830184953 79 173 6.0 9.0 0.00 0.00 0.00 89 1019.2
20260830184453 79 164 6.0 10.0 0.00 0.00 0.00 89 1019.0
20260830183947 79 136 5.0 8.0 0.00 0.00 0.00 89 1019.1
20260830183447 78 129 4.0 8.0 0.00 0.00 0.00 89 1018.9
20260830182943 78 109 6.0 8.0 0.00 0.00 0.00 89 1019.4
20260830182438 78 118 6.0 10.0 0.00 0.00 0.00 89 1019.6
20260830181935 78 173 4.0 7.0 0.00 0.00 0.00 89 1019.6
20260830181431 78 110 6.0 9.0 0.00 0.00 0.00 89 1019.8
20260830180930 78 102 5.0 7.0 0.00 0.00 0.00 89 1019.9
20260830180430 78 127 4.0 8.0 0.00 0.00 0.00 88 1019.9
20260830175929 78 105 6.0 9.0 0.00 0.00 0.00 88 1019.6
20260830175428 78 148 6.0 10.0 0.00 0.00 0.00 87 1019.5
20260830174924 79 93 10.0 13.0 0.00 0.00 0.00 86 1019.5
20260830174419 79 90 11.0 14.0 0.00 0.00 0.00 85 1019.9
20260830173915 79 93 5.0 11.0 0.00 0.00 0.00 83 1020.3
20260830173410 80 95 12.0 16.0 0.00 0.00 0.00 81 1019.9
20260830172906 81 167 9.0 14.0 0.00 0.00 0.00 80 1019.8
20260830172402 82 122 11.0 15.0 0.00 0.00 0.00 80 1019.8
20260830171858 81 165 6.0 10.0 0.00 0.00 0.00 81 1020.0
20260830171354 82 242 8.0 13.0 0.00 0.00 0.00 81 1019.6
20260830170854 82 144 14.0 15.0 0.00 0.00 0.00 78 1020.0
20260830170353 83 153 9.0 15.0 0.00 0.00 0.00 77 1019.9
20260830165851 84 147 12.0 17.0 0.00 0.00 0.00 76 1019.8
20260830165348 87 200 12.0 21.0 0.00 0.00 0.00 71 1019.9
20260830164844 94 174 11.0 22.0 0.00 0.00 0.00 58 1019.7
20260830164339 91 194 8.0 17.0 0.00 0.00 0.00 60 1019.6
20260830163836 90 203 9.0 14.0 0.00 0.00 0.00 64 1019.8
20260830163331 89 245 9.0 19.0 0.00 0.00 0.00 64 1019.8
20260830162826 89 240 12.0 16.0 0.00 0.00 0.00 64 1019.8
20260830162323 91 229 10.0 15.0 0.00 0.00 0.00 62 1019.8
20260830161818 92 209 8.0 14.0 0.00 0.00 0.00 62 1019.8
20260830161316 91 210 9.0 11.0 0.00 0.00 0.00 62 1019.4
20260830160812 91 245 9.0 15.0 0.00 0.00 0.00 61 1019.5
20260830160312 91 185 8.0 14.0 0.00 0.00 0.00 62 1019.7
20260830155808 91 232 8.0 15.0 0.00 0.00 0.00 61 1019.5
20260830155306 91 221 7.0 15.0 0.00 0.00 0.00 62 1019.6
20260830154805 90 188 10.0 14.0 0.00 0.00 0.00 66 1019.4
20260830154300 90 226 9.0 13.0 0.00 0.00 0.00 64 1019.6
20260830153757 90 207 9.0 15.0 0.00 0.00 0.00 62 1019.8
20260830153253 91 203 8.0 11.0 0.00 0.00 0.00 61 1019.5
20260830152750 92 231 7.0 15.0 0.00 0.00 0.00 59 1019.9
20260830152245 91 231 11.0 11.0 0.00 0.00 0.00 59 1020.0
20260830151744 91 203 9.0 15.0 0.00 0.00 0.00 61 1020.0
20260830151244 92 193 9.0 13.0 0.00 0.00 0.00 61 1020.2
20260830150739 93 242 9.0 11.0 0.00 0.00 0.00 58 1020.0
20260830150239 92 225 8.0 9.0 0.00 0.00 0.00 61 1020.0
20260830145739 93 182 8.0 14.0 0.00 0.00 0.00 59 1020.2
20260830145234 92 216 8.0 11.0 0.00 0.00 0.00 60 1020.3
20260830144729 91 217 8.0 10.0 0.00 0.00 0.00 63 1020.2
20260830144226 89 232 7.0 14.0 0.00 0.00 0.00 63 1020.3
20260830143721 89 183 7.0 11.0 0.00 0.00 0.00 64 1020.4
20260830143219 91 190 4.0 10.0 0.00 0.00 0.00 60 1020.4
20260830142715 92 183 6.0 8.0 0.00 0.00 0.00 58 1020.2
20260830142210 91 202 4.0 9.0 0.00 0.00 0.00 61 1020.2
20260830141705 88 198 7.0 9.0 0.00 0.00 0.00 63 1020.3
20260830141200 88 219 5.0 8.0 0.00 0.00 0.00 63 1020.3
20260830140655 89 215 6.0 9.0 0.00 0.00 0.00 61 1020.2
20260830140150 90 194 6.0 11.0 0.00 0.00 0.00 61 1020.3
20260830135645 91 214 6.0 8.0 0.00 0.00 0.00 59 1020.1
20260830135140 91 170 6.0 9.0 0.00 0.00 0.00 59 1020.2
20260830134636 91 187 7.0 10.0 0.00 0.00 0.00 58 1020.1
20260830134131 91 187 4.0 6.0 0.00 0.00 0.00 58 1020.1
20260830133627 91 169 3.0 6.0 0.00 0.00 0.00 59 1019.9
20260830133121 92 64 3.0 9.0 0.00 0.00 0.00 58 1019.8
20260830132618 91 13 4.0 7.0 0.00 0.00 0.00 58 1019.9
20260830132113 91 81 4.0 7.0 0.00 0.00 0.00 57 1019.8
20260830131612 92 53 7.0 9.0 0.00 0.00 0.00 56 1019.7
20260830131107 90 115 1.0 3.0 0.00 0.00 0.00 60 1019.6
20260830130601 92 81 3.0 7.0 0.00 0.00 0.00 57 1019.6
20260830130057 91 79 5.0 7.0 0.00 0.00 0.00 58 1019.5
20260830125551 89 356 4.0 7.0 0.00 0.00 0.00 61 1019.4
20260830125050 89 38 4.0 8.0 0.00 0.00 0.00 61 1019.7
20260830124549 90 20 4.0 7.0 0.00 0.00 0.00 58 1019.7
20260830124045 88 209 2.0 7.0 0.00 0.00 0.00 62 1019.7
20260830123542 87 299 2.0 4.0 0.00 0.00 0.00 65 1019.5
20260830123038 87 330 3.0 7.0 0.00 0.00 0.00 64 1019.4
20260830122534 89 77 5.0 6.0 0.00 0.00 0.00 61 1019.3
20260830122030 92 1 3.0 6.0 0.00 0.00 0.00 57 1019.2
20260830121526 90 155 4.0 4.0 0.00 0.00 0.00 61 1019.2
20260830121025 88 56 5.0 7.0 0.00 0.00 0.00 62 1019.4
20260830120520 89 150 2.0 3.0 0.00 0.00 0.00 62 1019.3
20260830120017 89 107 4.0 4.0 0.00 0.00 0.00 62 1019.3
20260830115513 88 161 1.0 3.0 0.00 0.00 0.00 63 1019.2
20260830115008 88 110 4.0 4.0 0.00 0.00 0.00 63 1019.1
20260830114504 87 150 3.0 4.0 0.00 0.00 0.00 65 1018.9
20260830114004 87 107 4.0 4.0 0.00 0.00 0.00 65 1018.8
20260830113459 87 200 2.0 2.0 0.00 0.00 0.00 67 1018.7
20260830112954 86 197 1.0 2.0 0.00 0.00 0.00 68 1018.6
20260830112450 85 209 2.0 3.0 0.00 0.00 0.00 70 1018.5
20260830111947 84 232 1.0 1.0 0.00 0.00 0.00 71 1018.6
20260830111442 84 312 2.0 2.0 0.00 0.00 0.00 72 1018.4
20260830110937 83 347 2.0 3.0 0.00 0.00 0.00 72 1018.5
20260830110432 83 309 2.0 3.0 0.00 0.00 0.00 73 1018.3